Notices

What's New in latest Release from April 7th, 2021:

- Updated Glossary, including Speed of Maximum Gust, and Total Hourly Precipitation

- Updated national and regional climate services offices contacts and prices information

- Addition of station inventory lists for 1981-2010, 1971-2000, and 1961-1990 Normals.

If you haven't already, please take our survey and provide feedback about our website: https://eccc.sondage-survey.ca/f/LanguageSelection.aspx?s=442ca660-fcf1-47c0-95a9-59707d6fd709

Hourly Data Report for March 11, 2003

TORONTO CITY
ONTARIO

43°40'00.000" N
79°24'00.000" W
112.50 m
6158355
71508
XTO

Download Data

Hourly Data (March 2003)
Hourly Data Report for March 11, 2003
TIME
LST
Temp Definition
°C
Dew Point Definition
°C
Rel Hum Definition
%
Precip. Amount Definition
mm

Wind Dir Definition
10's deg

Wind Spd Definition
km/h
Visibility Definition
km
Stn Press Definition
kPa
Hmdx Definition


Wind Chill Definition


Weather Definition


00:00 -9.9 -15.1 66   LegendMM LegendMM LegendMM 100.55     LegendNANA
01:00 -9.7 -14.2 70   LegendMM LegendMM LegendMM 100.55     LegendNANA
02:00 -9.5 -13.9 70   LegendMM LegendMM LegendMM 100.54     LegendNANA
03:00 -9.8 -14.2 70   LegendMM LegendMM LegendMM 100.49     LegendNANA
04:00 -10.6 -14.9 71   LegendMM LegendMM LegendMM 100.41     LegendNANA
05:00 -9.9 -14.2 71   LegendMM LegendMM LegendMM 100.42     LegendNANA
06:00 -9.6 -14.1 70   LegendMM LegendMM LegendMM 100.41     LegendNANA
07:00 -9.0 -13.4 70   LegendMM LegendMM LegendMM 100.38     LegendNANA
08:00 -8.8 -13.5 69   LegendMM LegendMM LegendMM 100.39     LegendNANA
09:00 -7.6 -12.9 66   LegendMM LegendMM LegendMM 100.36     LegendNANA
10:00 -5.7 -12.1 61   LegendMM LegendMM LegendMM 100.32     LegendNANA
11:00 -4.2 -11.1 59   LegendMM LegendMM LegendMM 100.24     LegendNANA
12:00 -3.4 -9.9 61   LegendMM LegendMM LegendMM 100.21     LegendNANA
13:00 -2.3 -10.4 54   LegendMM LegendMM LegendMM 100.15     LegendNANA
14:00 -0.7 -9.9 50   LegendMM LegendMM LegendMM 100.05     LegendNANA
15:00 -0.6 -9.1 53   LegendMM LegendMM LegendMM 100.01     LegendNANA
16:00 -0.6 -9.1 53   LegendMM LegendMM LegendMM 99.98     LegendNANA
17:00 -0.7 -8.0 58   LegendMM LegendMM LegendMM 99.91     LegendNANA
18:00 -0.9 -7.6 60   LegendMM LegendMM LegendMM 99.87     LegendNANA
19:00 -0.8 -7.7 59   LegendMM LegendMM LegendMM 99.82     LegendNANA
20:00 -0.2 -6.1 64   LegendMM LegendMM LegendMM 99.77     LegendNANA
21:00 -0.1 -5.0 70   LegendMM LegendMM LegendMM 99.66     LegendNANA
22:00 0.2 -4.0 73   LegendMM LegendMM LegendMM 99.65     LegendNANA
23:00 1.4 -3.6 69   LegendMM LegendMM LegendMM 99.60     LegendNANA

Notes on Data Quality.

Legend

  • E = Estimated
  • M = Missing
  • NA = Not Available*
  • [empty] = Indicates an unobserved value
Date modified: